Location: Delmar
(42.6220°N, 73.8326°W)
Time: 09:54:57
(UTC+00:00)

Cosmos 2082 - Pass Details

Date: 29 October 2020
Orbit: 832 x 857 km, 71.0° (Epoch: 23 November)

Event Time Altitude Azimuth Distance (km) Brightness Sun altitude
Rises 23:17:18 0° 337° (NNW) 3,436 7.1 -16.3°
Reaches altitude 10° 23:19:47 10° 340° (NNW) 2,497 6.4 -16.8°
Maximum altitude 23:25:31 71° 64° (ENE) 908 3.6 -17.8°
Drops below altitude 10° 23:31:13 10° 148° (SSE) 2,481 5.8 -18.9°
Enters shadow 23:31:41 - 149° (SSE) 2,656 6.0 -19.0°
